Regional Weather Roundup
Issued by NWS Charleston, SC

Home | Current Version | Previous Version | Text Only | Print | Product List | Glossary On
Versions: 1 2 3 4 5 6 7 8 9 10 11 12 13 14 15 16 17 18 19 20 21 22 23 24 25 26 27 28 29 30 31 32 33 34 35 36 37 38 39 40 41 42 43 44 45 46 47 48 49 50
000
ASUS42 KCHS 041727
RWRCHS

REGIONAL WEATHER ROUNDUP
NATIONAL WEATHER SERVICE CHARLESTON SC
100 PM EDT SAT JUL 04 2015

NOTE: "FAIR" INDICATES FEW OR NO CLOUDS BELOW 12,000 FEET WITH NO
SIGNIFICANT WEATHER AND/OR OBSTRUCTIONS TO VISIBILITY.

NOT ALL STATIONS ARE QUALITY CONTROLLED BY THE NATIONAL
WEATHER SERVICE. USE DATA WITH CAUTION...ESPECIALLY
DEWPOINT OBSERVATIONS.

SCZ027-030-031-034>040-042>050-041800-
...SOUTHEAST SOUTH CAROLINA...

CITY           SKY/WX    TMP DP  RH WIND       PRES   REMARKS
N CHARLESTON   MOSUNNY   89  71  55 SW12      30.08S HX  95
WATERFRONT PAR   N/A     87  72  60 W6        30.06F HX  93
MOUNT PLEASANT LGT RAIN  90  72  55 W8        30.08S HX  96
JOHNS ISLAND   FAIR      88  75  66 S12       30.08F HX  97
PINOPOLIS      NOT AVBL
MONCKS CORNER  FAIR      88  70  55 SW7       30.08F HX  92
SUMMERVILLE    FAIR      86  70  58 W8        30.10S HX  90
BEAUFORT MCAS  PTSUNNY   88  72  58 SW10      30.10R HX  94
BEAUFORT ARPT  FAIR      88  73  62 CALM      30.09F HX  96
HILTON HEAD IS MOSUNNY   90  75  62 SW7       30.11S HX 100
WALTERBORO     PTSUNNY   86  66  51 W8        30.10S
ALLENDALE      FAIR      84  70  61 VRB3      30.10R

...SOUTHERN MIDLANDS AND PEE DEE...

CITY           SKY/WX    TMP DP  RH WIND       PRES   REMARKS
GEORGETOWN     NOT AVBL
KINGSTREE      NOT AVBL
ORANGEBURG     PTSUNNY   85  67  54 W10       30.09S
BARNWELL       FAIR      84  70  61 SW10      30.11R
AIKEN          NOT AVBL
MANNING        FAIR      82  63  51 SW10      30.08S
COLUMBIA       CLOUDY    83  66  56 W15       30.07S
SUMTER         CLOUDY    81  68  64 SW10      30.06S
FLORENCE       CLOUDY    85  68  56 W14       30.05S
MYRTLE BEACH   MOSUNNY   91  70  49 W12G17    30.07S HX  97
N MYRTLE BEACH MOSUNNY   88  73  61 SW16      30.05S HX  95

$$

GAZ063-065-086>088-099>101-113>116-118-119-134>141-150-041800-
...SOUTHEAST GEORGIA...

CITY           SKY/WX    TMP DP  RH WIND       PRES   REMARKS
SAVANNAH ARPT  PTSUNNY   90  71  53 SW10      30.10S HX  96
HUNTER AAF     PTSUNNY   91  75  60 SW9G16    30.08S HX 101
FORT STEWART   PTSUNNY   89  72  56 W12       30.09S HX  96
STATESBORO     NOT AVBL
SYLVANIA       PTSUNNY   90  74  58 W9        30.11S HX  99
CLAXTON        FAIR      88  72  58 W8G17     30.10F HX  94

...CSRA...CENTRAL AND FAR SOUTHEAST GEORGIA...

CITY           SKY/WX    TMP DP  RH WIND       PRES   REMARKS
THOMSON        CLOUDY    83  72  70 W10       30.15F
AUGUSTA-BUSH   CLOUDY    83  67  58 W13       30.09R
AUGUSTA-DANIEL CLOUDY    83  68  60 VRB6      30.12R
SWAINSBORO     PTSUNNY   90  73  58 W9        30.11F HX  98
VIDALIA        PTSUNNY   88  70  55 W9        30.11F HX  92
EASTMAN        FAIR      90  72  54 W7        30.11F HX  97
HAZLEHURST     FAIR      91  72  52 W5        30.09F HX  98
ALMA           MOSUNNY   88  72  58 SW9       30.11F HX  94
WAYCROSS       MOSUNNY   91  77  62 SW9       30.11F HX 104
JESUP          FAIR      91  73  55 W7G16     30.11F HX 100
BAXLEY         FAIR      90  72  55 SW8G16    30.10F HX  96
BRUNSWICK      MOSUNNY   91  72  52 W8        30.11S HX  98
SAINT SIMONS   MOSUNNY   90  72  55 SW8       30.11S HX  97

$$

SCZ027-028-034-036>038-045-046-048>050-GAZ119-141-041800-
...LAKE AND SUPPLEMENTAL COASTAL OBSERVATIONS...

STATION/POSITION TIME  TEMP    WIND        PRES    WAVE   SWELL
                       AIR SEA DIR/SP/G            HT/PER HT/PER/DIR
                 (UTC) (F)     (DEG/KT/KT) (MB)    (FT/S) (FT/S/D)
UPR LAKE MARION  NOT AVBL
WINYAH BAY       1645   87     240/ 10     1017.0S
LAKE MURRAY      1600   79     260/ 13/ 18 1017.6R
ACE BASIN NERRS  1645   88     140/  1     1019.0S
FORT PULASKI     1700   87 83  220/  8/ 12 1019.8S
SAPELO ISLAND    1700   89     270/  9     1020.0R

$$

ANZ835-935-AMZ111-154-330-350-352-354-370-450-454-472-041800-
...C-MAN AND BUOY OBSERVATIONS...

STATION/POSITION TIME  TEMP    WIND        PRES    WAVE   SWELL
                       AIR SEA DIR/SP/G            HT/PER HT/PER/DIR
                 (UTC) (F)     (DEG/KT/KT) (MB)    (FT/S) (FT/S/D)
BUOY 41004       1650   81 82  230/ 12/ 14 1018.5S   4/ 6   3/10
BUOY 41008       1650   79 79  200/ 10/ 10 1019.8F   2/10   2/130/10
FOLLY BEACH CMAN 1700   82     210/ 12/ 14 1019.0S
CAPERS NEARSHORE 1608   82     230/ 10/ 12 1019.1R
FRIPP NEARSHORE  1600   83     220/  8/ 12 1019.0


STATION/POSITION TIME  TEMP    WIND        PRES    WAVE   SWELL
                       AIR SEA DIR/SP/G            HT/PER HT/PER/DIR
                 (UTC) (F)     (DEG/KT/KT) (MB)    (FT/S) (FT/S/D)
5E ST. MARYS GA  1621      78                N/A     2/10
FRYING PAN BUOY  1650   81 79  220/ 14/ 16 1018.6F   4/ 6   2/130/ 9
BUOY 41025       1650   81 81  230/ 23/ 27 1015.4S   6/ 7   2/ 20/14
CAPE LOOKOUT NC  1700   83     230/ 13/ 19 1016.7R
BUOY 41002       1650   82 80  240/ 12/ 12 1021.5R   6/ 6   5/260/ 6
BUOY 41010       1620   83 84  160/  8/ 10 1021.5F
ST AUGUSTINE FL  1700   77 73  110/ 10/ 11 1021.0F


$$


USA.gov is the U.S. government's official web portal to all federal, state and local government web resources and services.